Temp
23 22 19 19 20 20 20 20 19 18 18 18 18 18 17 18 18 17 18 18 17 19
23 22 20 20 19 19 19 19 18 18 18 18 17 18 18 17 18 17 18 18 18 17
23 23 22 21 22 20 19 19 19 18 18 17 17 17 18 18 18 17 18 17 18 18
22 21 23 23 22 23 21 19 21 20 19 18 17 18 18 18 18 18 17 17 17 17
22 21 21 24 23 23 22 21 21 20 20 19 19 18 17 17 17 17 18 17 17 17
22 21 21 21 22 22 20 21 20 19 19 18 18 18 19 18 17 17 17 17 17 17
22 21 21 21 20 19 19 19 18 18 17 18 16 17 18 18 18 17 17 17 18 17
21 21 21 21 20 20 19 19 21 20 21 18 16 20 18 19 18 17 17 17 18 18
22 23 23 21 21 19 19 21 22 22 23 23 25 22 20 20 19 17 17 18 17 17
23 24 24 22 21 20 21 22 23 23 22 22 22 21 21 22 20 19 18 18 18 17
23 24 24 23 22 20 23 23 21 21 21 22 21 18 20 22 21 20 19 18 18 18
22 22 23 23 21 21 23 23 22 22 21 23 20 20 20 20 20 19 19 18 17 17
22 21 20 22 22 20 22 22 22 21 21 20 21 20 20 19 19 18 17 18 18 18
21 22 19 20 20 20 20 21 21 19 20 20 20 20 20 20 19 19 17 17 18 18
Height
1560 1562 1565 1567 1570 1571 1571 1571 1572 1572 1571 1572 1573 1573 1574 1574 1576 1577 1578 1579 1582 1585
1557 1559 1562 1563 1565 1566 1566 1568 1568 1568 1568 1568 1568 1569 1569 1571 1573 1574 1574 1576 1577 1580
1554 1556 1558 1561 1561 1562 1563 1564 1566 1566 1566 1568 1568 1567 1567 1567 1569 1569 1570 1572 1574 1575
1552 1553 1555 1556 1557 1558 1560 1561 1562 1564 1565 1566 1567 1566 1564 1564 1565 1565 1566 1568 1570 1573
1548 1551 1553 1552 1553 1555 1556 1558 1561 1562 1562 1564 1563 1563 1562 1561 1563 1561 1561 1563 1566 1569
1545 1547 1549 1550 1550 1552 1554 1555 1557 1560 1563 1566 1562 1559 1558 1558 1558 1558 1559 1560 1562 1564
1542 1544 1546 1546 1547 1549 1550 1552 1553 1550 1552 1553 1547 1550 1549 1551 1552 1553 1554 1554 1554 1557
1540 1541 1540 1540 1542 1542 1544 1540 1540 1536 1536 1534 1530 1536 1538 1542 1543 1545 1548 1549 1549 1551
1536 1536 1535 1537 1536 1536 1536 1534 1531 1529 1525 1517 1516 1521 1526 1531 1536 1538 1540 1542 1544 1546
1533 1533 1533 1533 1532 1531 1529 1527 1525 1524 1523 1520 1523 1521 1521 1522 1527 1528 1532 1533 1536 1539
1533 1532 1532 1531 1529 1528 1524 1522 1520 1521 1520 1519 1519 1514 1518 1521 1520 1519 1523 1526 1528 1531
1531 1531 1530 1529 1526 1525 1522 1520 1518 1516 1517 1515 1515 1517 1517 1516 1516 1515 1517 1519 1522 1526
1528 1527 1527 1526 1523 1522 1519 1516 1513 1513 1514 1513 1513 1513 1514 1516 1515 1513 1514 1513 1516 1520
1527 1524 1524 1522 1520 1518 1516 1514 1512 1510 1510 1509 1509 1510 1512 1512 1511 1510 1511 1509 1509 1513
Wind_Speed
19 19 17 17 15 14 15 15 15 16 16 18 17 16 14 15 17 14 16 15 11 8
20 20 17 17 16 17 17 15 16 16 16 16 17 18 17 15 15 16 17 15 13 11
20 20 20 19 19 18 17 17 17 16 16 16 16 17 18 16 15 17 16 11 10 11
18 19 19 20 20 20 19 18 19 19 18 16 16 17 17 18 18 17 16 15 14 14
20 19 17 18 20 20 20 19 20 19 20 20 19 17 17 18 17 18 18 15 15 16
19 19 18 18 20 20 18 19 17 16 15 20 24 22 20 19 18 18 18 18 18 18
13 14 16 17 18 15 16 13 12 8 6 55 29 20 21 22 22 19 20 21 22 21
9 10 11 12 13 16 16 22 25 17 21 37 22 29 29 21 24 23 21 22 23 23
6 5 6 7 8 11 15 18 24 30 20 10 23 19 20 29 28 24 25 25 23 22
1 2 3 3 6 9 12 16 19 23 23 19 19 17 20 22 23 20 21 26 27 25
3 2 3 4 7 10 15 18 20 21 16 17 14 27 15 14 19 25 27 24 27 27
5 4 3 5 8 12 16 19 20 14 15 15 17 16 15 19 15 25 26 23 27 26
9 8 8 8 11 12 16 19 17 13 16 18 15 13 15 24 27 24 22 22 27 30
14 12 10 9 11 12 15 17 18 18 22 20 21 18 19 23 27 27 21 21 22 24
Wind_Direction
236 238 237 239 232 241 240 245 241 249 242 250 247 249 247 250 245 246 248 242 235 233
234 231 229 229 236 239 241 240 245 240 243 245 247 249 249 244 244 242 249 245 241 230
236 238 239 239 243 241 241 246 239 252 250 252 253 254 254 250 245 245 247 244 245 236
230 231 241 244 249 252 251 246 255 256 260 258 258 260 261 259 242 244 239 232 224 231
234 229 232 247 250 254 255 257 260 264 262 264 266 265 259 256 252 248 246 239 227 228
239 240 239 240 251 250 253 256 258 265 275 291 277 268 266 261 256 250 242 234 229 226
243 242 245 246 251 245 248 251 249 219 22 341 307 262 267 265 260 250 245 242 240 227
243 241 248 250 251 251 240 239 245 250 322 356 287 256 266 270 258 252 246 245 246 239
258 258 265 266 252 246 240 252 263 279 281 295 296 262 261 264 262 250 252 248 243 240
314 309 300 282 256 243 263 270 262 274 246 267 286 282 282 262 244 245 254 251 248 238
51 15 315 292 265 259 289 287 271 265 260 274 286 279 270 244 252 249 246 260 243 240
357 338 313 300 280 273 284 285 291 286 251 275 273 269 259 228 259 252 239 249 241 238
347 325 309 292 292 269 290 291 295 271 245 257 256 274 255 247 249 255 239 251 241 239
331 335 327 306 295 286 295 296 296 279 250 252 255 267 266 258 254 250 249 247 236 235